Weather History for Gage, OK

Change the Weather History Date:

Sunday, October 21, 2012

  Actual Average Record
Temperature  
Mean Temperature 70 °F -  
Max Temperature 93 °F 72 °F 93 °F (2012)
Min Temperature 46 °F 45 °F 26 °F (1993)
Cooling Degree Days 4    
Growing Degree Days 20 (Base 50)    
Moisture  
Dew Point 37 °F    
Average Humidity 40    
Maximum Humidity 90    
Minimum Humidity 11    
Precipitation  
Precipitation 0.00 in - - ()
Sea Level Pressure  
Sea Level Pressure 29.64 in    
Wind  
Wind Speed 8 mph (SSW)    
Max Wind Speed 24 mph    
Max Gust Speed 30 mph    
Visibility 10 miles    
Events      
Averages and records for this station are not official NWS values.
T = Trace of Precipitation, MM = Missing Value Source: NWS Daily Summary

Daily Weather History Graph

Daily Weather History Graph

Search for Another Location

Airport:

Trip Planner

Search our weather history database for the weather conditions in past years. The results will help you decide how hot, cold, wet, or windy it might be!

Date:

Astronomy

Oct. 21, 2012 Rise Set
Actual Time 7:52 AM CDT 6:54 PM CDT
Civil Twilight 7:25 AM CDT 7:20 PM CDT
Nautical Twilight 6:55 AM CDT 7:50 PM CDT
Astronomical Twilight 6:26 AM CDT 8:20 PM CDT
Moon 2:10 PM CDT (10/21) No Moon Set
Length of Visible Light 11h 54m
Length of Day
11h 02m
Waxing Crescent, 45% of the Moon is Illuminated
Oct 21
Waxing Crescent
Oct 21
First Quarter
Oct 29
Full
Nov 6
Last Quarter
Nov 13
New

Hourly Weather History & Observations

Time (CDT) Temp. Dew Point Humidity Pressure Visibility Wind Dir Wind Speed Gust Speed Precip Events Conditions
12:53 AM 52.0 °F 42.1 °F 69% 29.65 in 10.0 mi Calm Calm - N/A   Clear
1:53 AM 59.0 °F 42.8 °F 55% 29.70 in 10.0 mi South 8.1 mph - N/A   Clear
2:53 AM 50.0 °F 42.8 °F 76% 29.69 in 10.0 mi Calm Calm - N/A   Clear
3:53 AM 48.9 °F 41.0 °F 74% 29.62 in 10.0 mi Calm Calm - N/A   Clear
4:53 AM 48.2 °F 39.2 °F 71% 29.67 in 10.0 mi Calm Calm - N/A   Clear
5:53 AM 48.9 °F 46.0 °F 90% 29.62 in 10.0 mi SW 3.5 mph - N/A   Clear
6:53 AM 46.9 °F 41.0 °F 80% 29.65 in 10.0 mi Calm Calm - N/A   Clear
7:53 AM 48.9 °F 43.0 °F 80% 29.66 in 10.0 mi SW 5.8 mph - N/A   Clear
8:53 AM 57.9 °F 42.1 °F 56% 29.66 in 10.0 mi South 13.8 mph - N/A   Clear
9:53 AM 64.9 °F 39.0 °F 39% 29.68 in 10.0 mi SSW 13.8 mph - N/A   Clear
10:53 AM 75.0 °F 35.1 °F 23% 29.66 in 10.0 mi SSW 15.0 mph - N/A   Clear
11:53 AM 80.6 °F 35.6 °F 20% 29.71 in 10.0 mi SSW 13.8 mph - N/A   Clear
12:53 PM 86.0 °F 37.0 °F 18% 29.63 in 10.0 mi South 16.1 mph - N/A   Clear
1:53 PM 89.1 °F 37.0 °F 16% 29.59 in 10.0 mi South 24.2 mph 28.8 mph N/A   Clear
2:53 PM 90.0 °F 37.9 °F 16% 29.58 in 10.0 mi SSW 17.3 mph 25.3 mph N/A   Clear
3:53 PM 93.0 °F 32.0 °F 12% 29.57 in 10.0 mi SSW 20.7 mph 28.8 mph N/A   Clear
4:53 PM 93.0 °F 32.0 °F 12% 29.57 in 10.0 mi SSW 13.8 mph - N/A   Clear
5:53 PM 91.0 °F 30.0 °F 11% 29.58 in 10.0 mi SW 21.9 mph 29.9 mph N/A   Clear
6:53 PM 84.0 °F 30.0 °F 14% 29.60 in 10.0 mi SSW 13.8 mph - N/A   Clear
7:53 PM 78.1 °F 30.9 °F 18% 29.64 in 10.0 mi SSW 13.8 mph - N/A   Clear
8:53 PM 73.0 °F 33.1 °F 23% 29.65 in 10.0 mi South 13.8 mph - N/A   Clear
9:53 PM 71.1 °F 33.1 °F 25% 29.65 in 10.0 mi South 13.8 mph - N/A   Clear
10:53 PM 71.1 °F 34.0 °F 26% 29.65 in 10.0 mi SSW 15.0 mph - N/A   Clear
11:53 PM 66.9 °F 36.0 °F 32% 29.66 in 10.0 mi SSW 15.0 mph - N/A   Clear